Pampa, TX

12:48 PM CDT on July 21, 2017 (GMT -0500)
Perry Lefors

Weather History for KPPA - November, 2013

Change the Weather History Date:

Friday, November 22, 2013

  Actual Average Record
Temperature  
Mean Temperature 22 °F -  
Max Temperature 24 °F 58 °F 82 °F (1966)
Min Temperature 19 °F 30 °F 16 °F (1972)
Degree Days  
Heating Degree Days 44    
Moisture  
Dew Point 15 °F    
Average Humidity 74    
Maximum Humidity 83    
Minimum Humidity 67    
Precipitation  
Precipitation 0.00 in - - ()
Sea Level Pressure  
Sea Level Pressure 30.53 in    
Wind  
Wind Speed 21 mph (North)    
Max Wind Speed 28 mph    
Max Gust Speed 36 mph    
Visibility 10 miles    
Events      
Averages and records for this station are not official NWS values.
T = Trace of Precipitation, MM = Missing Value Source: NWS Daily Summary

Daily Weather History Graph

Daily Weather History Graph

Search for Another Location

Airport or City:

Trip Planner

Search our weather history database for the weather conditions in past years. The results will help you decide how hot, cold, wet, or windy it might be!

Date:

Astronomy

Nov. 22, 2013 Rise Set
Actual Time 7:26 AM CST 5:33 PM CST
Civil Twilight 6:59 AM CST 6:00 PM CST
Nautical Twilight 6:28 AM CST 6:31 PM CST
Astronomical Twilight 5:57 AM CST 7:02 PM CST
Moon 10:04 PM CST (11/22) 11:13 AM CST (11/22)
Length of Visible Light 11h 01m
Length of Day
10h 06m
Waning Gibbous, 78% of the Moon is Illuminated
Nov 22
Waning Gibbous
Nov 25
Last Quarter
Dec 2
New
Dec 9
First Quarter
Dec 17
Full

Hourly Weather History & Observations

Time (CST) Temp. Windchill Dew Point Humidity Pressure Visibility Wind Dir Wind Speed Gust Speed Precip Events Conditions
12:15 AM 21.6 °F 4.7 °F 12.6 °F 68% 30.43 in 10.0 mi North 25.3 mph 35.7 mph N/A   Overcast
12:35 AM 21.0 °F 3.6 °F 11.7 °F 67% 30.46 in 10.0 mi North 26.5 mph 35.7 mph N/A   Overcast
12:55 AM 20.8 °F 4.7 °F 11.8 °F 68% 30.46 in 10.0 mi North 21.9 mph 32.2 mph N/A   Overcast
1:15 AM 20.3 °F 2.6 °F 11.8 °F 70% 30.45 in 10.0 mi North 26.5 mph 34.5 mph N/A   Overcast
1:35 AM 20.3 °F 3.3 °F 12.0 °F 70% 30.45 in 10.0 mi North 24.2 mph 33.4 mph N/A   Overcast
1:55 AM 20.5 °F 3.9 °F 12.0 °F 70% 30.46 in 10.0 mi North 23.0 mph 34.5 mph N/A   Overcast
2:15 AM 20.3 °F 2.6 °F 11.1 °F 68% 30.46 in 10.0 mi North 26.5 mph 34.5 mph N/A   Overcast
2:35 AM 20.3 °F 3.7 °F 11.3 °F 68% 30.47 in 10.0 mi North 23.0 mph 32.2 mph N/A   Overcast
2:55 AM 20.7 °F 4.1 °F 11.8 °F 69% 30.47 in 10.0 mi North 23.0 mph 31.1 mph N/A   Overcast
3:15 AM 20.7 °F 4.5 °F 11.7 °F 68% 30.47 in 10.0 mi North 21.9 mph 28.8 mph N/A   Overcast
3:35 AM 20.7 °F 3.5 °F 11.3 °F 67% 30.47 in 10.0 mi North 25.3 mph 34.5 mph N/A   Overcast
3:55 AM 20.7 °F 4.1 °F 11.3 °F 67% 30.47 in 10.0 mi North 23.0 mph 33.4 mph N/A   Overcast
4:15 AM 20.7 °F 3.5 °F 11.7 °F 68% 30.47 in 10.0 mi North 25.3 mph 33.4 mph N/A   Overcast
4:35 AM 20.3 °F 2.3 °F 11.5 °F 69% 30.48 in 10.0 mi North 27.6 mph 34.5 mph N/A   Overcast
4:55 AM 20.3 °F 3.3 °F 11.7 °F 69% 30.50 in 10.0 mi North 24.2 mph 31.1 mph N/A   Overcast
5:15 AM 20.5 °F 4.6 °F 11.8 °F 69% 30.50 in 10.0 mi North 20.7 mph 31.1 mph N/A   Overcast
5:35 AM 20.3 °F 3.7 °F 12.2 °F 71% 30.49 in 10.0 mi North 23.0 mph 34.5 mph N/A   Overcast
5:55 AM 20.1 °F 4.2 °F 13.6 °F 76% 30.51 in 7.0 mi North 20.7 mph 33.4 mph N/A   Overcast
6:15 AM 19.8 °F 4.5 °F 14.9 °F 81% 30.50 in 4.0 mi North 18.4 mph 28.8 mph N/A   Haze
6:35 AM 19.8 °F 3.3 °F 15.4 °F 83% 30.51 in 5.0 mi North 21.9 mph 28.8 mph N/A   Haze
6:55 AM 19.9 °F 3.9 °F 14.9 °F 81% 30.53 in 10.0 mi North 20.7 mph 27.6 mph N/A   Overcast
7:15 AM 19.9 °F 3.2 °F 14.9 °F 81% 30.53 in 7.0 mi North 23.0 mph 32.2 mph N/A   Overcast
7:35 AM 19.8 °F 2.9 °F 14.4 °F 80% 30.54 in 10.0 mi North 23.0 mph 31.1 mph N/A   Overcast
7:55 AM 20.1 °F 5.9 °F 14.9 °F 80% 30.54 in 10.0 mi North 16.1 mph 28.8 mph N/A   Overcast
8:15 AM 19.9 °F 3.5 °F 14.5 °F 80% 30.55 in 10.0 mi North 21.9 mph 28.8 mph N/A   Overcast
8:35 AM 19.8 °F 3.7 °F 14.4 °F 80% 30.57 in 10.0 mi North 20.7 mph 31.1 mph N/A   Overcast
8:55 AM 19.8 °F 4.1 °F 14.5 °F 80% 30.57 in 10.0 mi North 19.6 mph 28.8 mph N/A   Overcast
9:15 AM 19.9 °F 2.8 °F 14.7 °F 80% 30.57 in 10.0 mi North 24.2 mph 29.9 mph N/A   Overcast
9:35 AM 20.1 °F 3.8 °F 14.9 °F 80% 30.59 in 10.0 mi North 21.9 mph 29.9 mph N/A   Overcast
9:55 AM 20.3 °F 4.8 °F 14.9 °F 80% 30.60 in 10.0 mi North 19.6 mph 27.6 mph N/A   Overcast
10:15 AM 20.3 °F 4.4 °F 14.7 °F 79% 30.59 in 10.0 mi North 20.7 mph 28.8 mph N/A   Overcast
10:35 AM 20.8 °F 4.4 °F 14.7 °F 77% 30.60 in 10.0 mi North 23.0 mph 29.9 mph N/A   Overcast
10:55 AM 21.2 °F 6.0 °F 15.4 °F 78% 30.60 in 10.0 mi North 19.6 mph 27.6 mph N/A   Overcast
11:15 AM 21.0 °F 5.4 °F 14.5 °F 76% 30.59 in 10.0 mi North 20.7 mph 28.8 mph N/A   Overcast
11:35 AM 21.2 °F 5.2 °F 14.2 °F 74% 30.59 in 10.0 mi North 21.9 mph 26.5 mph N/A   Overcast
11:55 AM 21.2 °F 6.0 °F 14.5 °F 75% 30.56 in 10.0 mi North 19.6 mph 24.2 mph N/A   Overcast
12:15 PM 21.2 °F 6.0 °F 14.7 °F 76% 30.57 in 10.0 mi North 19.6 mph 26.5 mph N/A   Overcast
12:35 PM 21.2 °F 5.6 °F 14.9 °F 77% 30.55 in 10.0 mi North 20.7 mph - N/A   Overcast
12:55 PM 21.9 °F 6.5 °F 14.9 °F 74% 30.54 in 10.0 mi North 20.7 mph 28.8 mph N/A   Overcast
1:15 PM 22.1 °F 6.0 °F 15.3 °F 75% 30.54 in 10.0 mi North 23.0 mph 27.6 mph N/A   Overcast
1:35 PM 22.6 °F 7.9 °F 15.6 °F 74% 30.53 in 10.0 mi North 19.6 mph 25.3 mph N/A   Overcast
1:55 PM 22.8 °F 7.7 °F 15.4 °F 73% 30.53 in 10.0 mi North 20.7 mph 27.6 mph N/A   Overcast
2:15 PM 22.5 °F 6.9 °F 15.1 °F 73% 30.52 in 10.0 mi North 21.9 mph 28.8 mph N/A   Overcast
2:35 PM 22.1 °F 7.2 °F 14.9 °F 74% 30.50 in 10.0 mi North 19.6 mph 28.8 mph N/A   Overcast
2:55 PM 22.3 °F 7.8 °F 14.9 °F 73% 30.52 in 10.0 mi North 18.4 mph 25.3 mph N/A   Overcast
3:15 PM 22.5 °F 8.0 °F 14.9 °F 73% 30.53 in 10.0 mi North 18.4 mph - N/A   Overcast
3:35 PM 22.8 °F 8.9 °F 15.3 °F 73% 30.53 in 10.0 mi North 17.3 mph 20.7 mph N/A   Overcast
3:55 PM 23.0 °F 8.7 °F 15.1 °F 72% 30.52 in 10.0 mi North 18.4 mph - N/A   Overcast
4:15 PM 23.0 °F 9.2 °F 15.3 °F 72% 30.53 in 10.0 mi North 17.3 mph 23.0 mph N/A   Overcast
4:35 PM 22.5 °F 7.6 °F 14.9 °F 73% 30.52 in 10.0 mi North 19.6 mph - N/A   Overcast
4:55 PM 22.5 °F 7.6 °F 15.4 °F 74% 30.52 in 10.0 mi North 19.6 mph - N/A   Overcast
5:15 PM 22.1 °F 7.2 °F 15.4 °F 76% 30.51 in 10.0 mi North 19.6 mph 24.2 mph N/A   Overcast
5:35 PM 22.1 °F 7.6 °F 15.6 °F 76% 30.51 in 10.0 mi North 18.4 mph 24.2 mph N/A   Overcast
5:55 PM 22.1 °F 6.8 °F 15.4 °F 76% 30.52 in 10.0 mi North 20.7 mph 24.2 mph N/A   Overcast
6:15 PM 22.1 °F 9.5 °F 15.6 °F 76% 30.52 in 10.0 mi North 13.8 mph 26.5 mph N/A   Overcast
6:35 PM 22.5 °F 9.4 °F 15.6 °F 75% 30.52 in 10.0 mi North 15.0 mph 20.7 mph N/A   Overcast
6:55 PM 22.5 °F 8.9 °F 15.8 °F 76% 30.53 in 10.0 mi North 16.1 mph - N/A   Overcast
7:15 PM 22.8 °F 10.9 °F 16.2 °F 76% 30.53 in 10.0 mi North 12.7 mph 20.7 mph N/A   Overcast
7:35 PM 22.8 °F 9.4 °F 16.3 °F 76% 30.53 in 10.0 mi North 16.1 mph 20.7 mph N/A   Overcast
7:55 PM 22.8 °F 11.5 °F 16.2 °F 76% 30.52 in 10.0 mi North 11.5 mph 19.6 mph N/A   Overcast
8:15 PM 23.0 °F 10.1 °F 15.8 °F 74% 30.53 in 10.0 mi North 15.0 mph - N/A   Overcast
8:35 PM 23.0 °F 10.6 °F 15.8 °F 74% 30.54 in 10.0 mi North 13.8 mph - N/A   Overcast
8:55 PM 23.4 °F 11.1 °F 15.8 °F 73% 30.54 in 10.0 mi North 13.8 mph 17.3 mph N/A   Overcast
9:15 PM 23.5 °F 12.4 °F 15.8 °F 72% 30.55 in 10.0 mi North 11.5 mph - N/A   Overcast
9:35 PM 23.9 °F 12.3 °F 15.6 °F 71% 30.55 in 10.0 mi North 12.7 mph 18.4 mph N/A   Overcast
9:55 PM 23.9 °F 11.7 °F 15.3 °F 70% 30.55 in 10.0 mi North 13.8 mph - N/A   Overcast
10:15 PM 24.3 °F 13.3 °F 15.8 °F 70% 30.55 in 10.0 mi North 11.5 mph - N/A   Overcast
10:35 PM 23.9 °F 12.9 °F 16.5 °F 73% 30.55 in 10.0 mi North 11.5 mph - N/A   Overcast
10:55 PM 24.4 °F 14.2 °F 16.7 °F 72% 30.56 in 10.0 mi North 10.4 mph - N/A   Overcast
11:15 PM 24.3 °F 12.7 °F 17.4 °F 75% 30.55 in 10.0 mi North 12.7 mph - N/A   Overcast
11:35 PM 24.3 °F 12.2 °F 18.9 °F 80% 30.56 in 10.0 mi North 13.8 mph 17.3 mph N/A   Overcast
11:55 PM 23.9 °F 12.3 °F 19.4 °F 83% 30.57 in 10.0 mi North 12.7 mph 17.3 mph N/A   Overcast